www.pogodaiklimat.ru

Погода и климат >> Архив погоды >> Россия >> Кировская область >> Опарино


ПОГОДА в Опарино

  • Прогноз погоды в Опарино
  • Монитор погоды в Опарино

АРХИВ ПОГОДЫ в Опарино

Время (UTC), дата Ветер
(напр.,м/с)
 
Видим.   Явления Облачность Т
(С)
Тd
(С)
f
(%)
Тe
(С)
Тes
(С)
Комфортность P
(гПа)
Po
(гПа)
Тmin
(С)
Tmax
(С)
R
(мм)
R24
(мм)
S
(см)
03 10.07 ЮВ 2 6000 м слаб. морось 10/10 300 м
[St]
+14.0 +13.8 99 +13 +13 992.2 971.4 +12.1 15
06 10.07 Ю 2-4
{10}
50 км {морось} 10/10 300 м
[St]
+14.4 +13.3 93 +14 +14 991.0 970.2
09 10.07 ЮЗ 4-8
{9}
16 км дождь {морось} 10/10 300 м
[St]
+14.6 +13.5 93 +13 +13 991.4 970.6
12 10.07 ЮЗ 3-5
{8}
50 км {дождь} 10/10 300 м
[Cb cap]
+17.1 +13.5 79 +17 +17 990.9 970.3
15 10.07 Ю 5-8
{9}
50 км 9/9 300 м
[Cb cap]
+15.2 +12.6 84 +14 +14 991.0 970.2 +17.5
18 10.07 Ю 3-5
{8}
50 км 10/10 300 м
[Sc]
+13.7 +12.6 93 +12 +12 991.3 970.5
21 10.07 СЗ 3-7
{8}
17 км слаб. дождь 10/0 300 м
[As op]
+11.6 +10.9 95 +10 +10 991.5 970.5
00 11.07 СЗ 2-6
{8}
50 км в посл. час дождь 10/10 300 м
[Frnb Ns]
+9.6 +9.0 96 +8 +8 993.5 972.3
03 11.07 СЗ 2-5
{7}
50 км в посл. час дождь 10/10 300 м
[Sc]
+9.5 +8.5 93 +8 +8 996.1 974.8 +9.0 3
06 11.07 СЗ 2-4
{5}
50 км {дождь} 9/9 600 м
[Cb cap]
+11.0 +9.0 87 +10 +11 997.9 976.7
09 11.07 С 2-2
{6}
50 км 9/9 600 м
[Cb cap]
+13.4 +7.3 67 +13 +14 1000.1 979.0
12 11.07 З 2-5
{7}
50 км {ливн. осадки} 8/8 600 м
[Cb cap]
+14.8 +8.0 64 +15 +16 1001.2 980.2
15 11.07 ЮВ 1-2
{6}
50 км 8/8 600 м
[Cb cap]
+12.9 +8.5 75 +13 +14 1002.7 981.5 +15.5 0.4
18 11.07 штиль 0
{2}
50 км 8/8 600 м
[Cb cap]
+10.8 +9.4 91 +10 +10 1002.9 981.6
21 11.07 штиль 0
{2}
50 км 9/9 600 м
[Sc]
+9.8 +9.0 95 +9 +9 1004.5 983.0
00 12.07 штиль 0
{1}
50 км 9/9 600 м
[Sc]
+9.4 +9.0 97 +8 +8 1004.6 983.1
03 12.07 В 1-3
{3}
16 км ливневой дождь 10/0 300 м
[As op]
+9.8 +9.4 97 +9 +10 1004.1 982.6 +9.0 21
06 12.07 Ю 1-1
{3}
9000 м слаб. морось {дождь} 10/10 300 м
[St]
+11.6 +11.0 96 +11 +11 1004.1 982.8
09 12.07 З 3-4
{5}
50 км {морось} 9/9 300 м
[Cu Sc]
+15.0 +12.1 83 +14 +15 1004.3 983.2
12 12.07 З 3-6
{7}
50 км {морось} 9/9 300 м
[Cu Sc]
+14.9 +12.2 84 +14 +15 1006.3 985.2
15 12.07 З 1-3
{6}
50 км 8/8 600 м
[Cb cap]
+15.8 +11.0 73 +17 +17 1007.4 986.4 +16.5 5
18 12.07 штиль 0
{3}
50 км 4/1 600 м
[Cu hum Ci fib]
+12.5 +12.1 97 +12 +12 1009.1 987.7
21 12.07 штиль 0
{1}
50 км 4/0
[Ci fib]
+6.2 +5.5 95 +5 +5 1010.2 988.3
00 13.07 СВ 1-1
{1}
50 км 3/0
[Ci fib]
+6.5 +5.8 95 +5 +5 1009.6 987.8
03 13.07 В 1-1
{2}
50 км 10/0
[Cs]
+10.9 +10.2 95 +10 +13 1009.2 987.7 +6.2
06 13.07 С 3-4
{6}
50 км 9/0
[Ci sp]
+15.2 +10.6 74 +15 +21 1008.0 986.9
09 13.07 С 2-4
{6}
50 км 5/5 600 м
[Cu med, cong]
+18.6 +10.0 57 +20 +26 1006.9 986.1
12 13.07 СЗ 2-3
{6}
50 км 9/9 600 м
[Cu Sc]
+19.0 +10.3 57 +20 +21 1006.9 986.1
15 13.07 СЗ 2-3
{4}
50 км 5/5 1000 м
[Cu med, cong]
+20.1 +9.7 51 +22 +23 комфорт 1007.1 986.4 +20.5
18 13.07 СВ 1-1
{6}
50 км 4/0
[Ac trans]
+14.2 +12.0 87 +15 +15 1008.1 987.0
21 13.07 штиль 0
{1}
50 км ясно +10.1 +9.3 95 +9 +9 1009.7 988.1
00 14.07 штиль 0
{1}
50 км ясно +7.6 +7.0 96 +7 +7 1010.0 988.2
03 14.07 штиль 0
{1}
50 км 6/0
[Cc]
+11.4 +10.4 94 +11 +14 1009.7 988.2 +7.0
06 14.07 СВ 1-2
{3}
50 км 8/0
[Cs]
+18.2 +12.3 68 +20 +29 1009.1 988.1
09 14.07 В 1-2
{4}
50 км 8/4 600 м
[Cu med, cong Cc]
+19.8 +11.4 58 +22 +31 комфорт 1008.7 987.9
12 14.07 В 2-3
{5}
50 км 8/6 600 м
[Cb cap Cc]
+20.4 +10.3 52 +23 +26 комфорт 1008.7 987.9
15 14.07 З 2-3
{5}
50 км 8/6 600 м
[Cu Sc Ci fib]
+17.8 +13.5 76 +18 +19 1009.3 988.3 +20.4
18 14.07 ЮЗ 1-1
{3}
50 км 4/1 1000 м
[Cu Sc Cc]
+15.8 +13.6 87 +16 +16 1009.9 988.8
21 14.07 штиль 0
{1}
50 км 10/10 600 м
[Sc]
+13.6 +12.8 95 +13 +13 1010.2 988.9
00 15.07 С 1-1
{2}
50 км 10/10 600 м
[Cb cap]
+12.8 +12.4 97 +13 +13 1010.2 988.8
03 15.07 СВ 1-2
{2}
50 км 9/9 600 м
[Sc]
+14.7 +13.4 92 +15 +15 1010.2 989.0 +12.3
06 15.07 З 1-2
{3}
50 км 9/9 600 м
[Cu Sc]
+18.9 +14.0 73 +21 +22 комфорт 1009.6 988.7
09 15.07 З 1-1
{5}
50 км 9/9 600 м
[Cu Sc]
+19.6 +14.0 70 +22 +24 комфорт 1008.8 988.0
12 15.07 С 1-2
{6}
50 км {ливн. осадки} 10/6 600 м
[Cb cap As op]
+19.1 +15.8 81 +22 +22 комфорт 1007.7 987.0
15 15.07 ЮЗ 1-1
{5}
13 км гроза, ливневой дождь 9/9 600 м
[Cb cap]
+16.8 +14.0 84 +18 +18 1007.8 986.9 +21.5 6
18 15.07 З 1-2
{3}
50 км {гроза, ливн. осадки} 9/9 600 м
[Cb cap]
+15.1 +13.8 92 +16 +16 1007.0 985.9
21 15.07 СЗ 2-3
{6}
50 км 8/8 600 м
[Cu Sc]
+13.4 +12.6 95 +13 +13 1006.4 985.2
00 16.07 СЗ 3-5
{6}
50 км 8/8 600 м
[Sc]
+12.1 +11.5 96 +10 +10 1006.4 985.1
03 16.07 З 2-6
{6}
50 км 5/3 600 м
[Sc Ci fib]
+12.8 +11.4 91 +12 +14 1006.5 985.3 +11.8 1
06 16.07 СЗ 4-8
{9}
50 км ясно +17.2 +12.1 72 +17 +23 1006.4 985.5
09 16.07 СЗ 3-8
{11}
50 км 6/6 600 м
[Cu med, cong]
+20.2 +12.0 59 +22 +27 комфорт 1007.3 986.6
12 16.07 З 4-9
{11}
50 км 5/5 600 м
[Cu med, cong]
+21.2 +8.8 45 +22 +25 комфорт 1008.8 988.0
15 16.07 СЗ 2-6
{11}
50 км ясно +21.2 +9.4 47 +23 +24 комфорт 1009.7 989.0 +21.5
18 16.07 З 1-1
{5}
50 км 1/0
[Ci fib]
+15.0 +12.6 86 +15 +15 1011.6 990.4
21 16.07 штиль 0
{2}
50 км ясно +10.4 +10.4 100 +10 +10 1013.3 991.8
00 17.07 штиль 0
{1}
50 км ясно +7.9 +7.9 100 +7 +7 1014.6 992.8

 

Местоположение метеостанции Опарино (Кировская область, Россия): широта 59.85 долгота 48.28 высота над уровнем моря 180 м.

В архиве по умолчанию представлена погода в Опарино за последнюю неделю. Архивные данные за месяц целиком и за предыдущие месяцы, начиная с января 2011 года, Вы можете получить, выбрав интересующий диапазон дат из раскрывающегося списка и нажав кнопку "Ввод!".


*Определитесь, кто Вы:
робот инопланетянин человек

Внимание! Время в таблицах - всемирное. Для получения местного времени необходимо прибавить поправку, которая равна 3 ч.

Смотрите также архив погоды в соседних городах и на ближайших метеорологических станциях:

Погода в Объячеве (Коми, Россия) (95 км)
Погода в Лальске (Кировская область, Россия) (102 км)
Погода в Даровском (Кировская область, Россия) (121 км)
Погода в Вохме (Костромская область, Россия) (133 км)
Погода в Вилегодском (Архангельская область, Россия) (142 км)
Погода в Великом Устюге (Вологодская область, Россия) (150 км)
Погода в Нагорске (Кировская область, Россия) (155 км)
Погода в Кирове (Кировская область, Россия) (159 км)
Погода в Никольске (Вологодская область, Россия) (162 км)
Погода в Койгородке (Коми, Россия) (163 км)

Пояснения к столбцам:

Ветер - указаны скорость ветра в м/с - средняя за 10 мин, порывы в срок и между сроками (в фигурных скобках) и направление, откуда дует ветер: С - северный, СВ - северо-восточный, В - восточный, ЮВ - юго-восточный, Ю - южный, ЮЗ - юго-западный, З - западный, СЗ - северо-западный.
Видимость - горизонтальная дальность видимости в метрах или километрах. При видимости от 1 до 10 км при отсутствии осадков обычно наблюдается дымка, при ухудшении видимости до 1 км и менее - туман. В сухую погоду видимость может ухудшаться дымом, пылью или мглою.
Явления - указаны атмосферные явления, наблюдавшиеся в срок или в последний час перед сроком; фигурными скобками обозначены явления, наблюдавшиеся между сроками (за 1-3 часа до срока); квадратными скобками обозначены град или гололедные отложения с указанием их диаметра в мм.
Облачность - указаны через наклонную черту общая и нижняя облачность в баллах и высота нижней границы облаков в метрах; квадратными скобками обозначены формы облаков: Ci - перистые, Cs - перисто-слоистые, Cc - перисто-кучевые, Ac - высококучевые, As - высокослоистые, Sc - слоисто-кучевые, Ns - слоисто-дождевые, Cu - кучевые, Cb - кучево-дождевые. Подробнее классификацию облаков см. в Атласе облаков (PDF).
T - Температура воздуха - температура, измеренная на высоте 2 м над землей.
Td - Температура точки росы - температура, при понижении до которой содержащийся в воздухе водяной пар достигнет насыщения.
f - Относительная влажность воздуха - влажноcть воздуха, измеренная на высоте 2 м над землей.
Te - Эффективная температура - температура, которую ощущает одетый по сезону человек в тени. Характеристика душности погоды. При расчете учитывается влияние влажности воздуха и скорости ветра на теплоощущения человека.
Tes - Эффективная температура на солнце - температура, которую ощущает человек, с поправкой на солнечный нагрев. Характеристика знойности погоды. Зависит от высоты солнца над горизонтом, облачности и скорости ветра. Ночью, в пасмурную погоду, а также при ветре 12 м/с и более поправка равна нулю.
P - Атмосферное давление - приведенное к уровню моря атмосферное давление.
Po - Атмосферное давление - измеренное на уровне метеостанции атмосферное давление.
Tmin - Минимальная температура - минимум температуры воздуха на высоте 2 м над землей.
Tmax - Максимальная температура - максимум температуры воздуха на высоте 2 м над землей.
R - Количество осадков - Количество выпавших осадков за период времени, мм. При наведении курсора мыши на число - период времени, за который выпало указанное количество осадков.
R24 - Количество осадков - Количество выпавших осадков за 24 часа, мм.
S - Снежный покров - Высота снежного покрова, см. При наведении курсора мыши на число - состояние снежного покрова и степень покрытия местности в баллах.